Date String (YYYY-MM-DD hh:mm:ss) UTC,Instrument flags,Ambient pressure (hPa),Sample flow (lpm),Bypass flow (lpm),Sample temperature (°C),Ambient temperature (°C),ASC tube jacket temperature (°C),LED temperature (°C),Box temperature (°C),Sample RH (%),Span deviation,Mass concentration (μg/m³),Mass concentration (μg/m³),Mass concentration (μg/m³)
DateTimeUTC,F1_M11,P_M11,Q1_M11,Q2_M11,T1_M11,T2_M11,T3_M11,T4_M11,T5_M11,U1_M11,ZSPAN_M11,X0_M11,X2_M11,X1_M11
2022-04-16 09:00:00,,0827.4,4.99,0.00,25.1,24.1,00.0,34.1,26.9,11.7,0000.0,0016.43,0005.78,0004.24
2022-04-16 09:01:00,,0827.3,5.00,0.00,25.1,24.1,00.0,34.1,26.9,11.8,0000.0,0016.26,0005.78,0004.23
2022-04-16 09:02:00,,0827.4,5.00,0.00,25.1,24.1,00.0,34.1,26.9,11.8,0000.0,0016.01,0005.73,0004.23
2022-04-16 09:03:00,,0827.4,5.00,0.00,25.1,24.1,00.0,34.1,26.9,11.9,0000.0,0015.33,0005.68,0004.24
2022-04-16 09:04:00,,0827.4,5.00,0.00,25.1,24.1,00.0,34.1,26.9,11.9,0000.0,0015.08,0005.62,0004.25
2022-04-16 09:05:00,,0827.4,5.01,0.00,25.1,24.1,00.0,34.1,26.9,11.9,0000.0,0015.39,0005.62,0004.25
2022-04-16 09:06:00,,0827.4,5.00,0.00,25.1,24.1,00.0,34.1,26.9,12.0,0000.0,0015.12,0005.61,0004.23
2022-04-16 09:07:00,,0827.4,5.00,0.00,25.1,24.1,00.0,34.1,26.9,12.0,0000.0,0014.07,0005.50,0004.22
2022-04-16 09:08:00,,0827.3,5.00,0.00,25.1,24.1,00.0,34.1,26.9,12.0,0000.0,0013.87,0005.48,0004.23
2022-04-16 09:09:00,,0827.4,5.00,0.00,25.1,24.1,00.0,34.1,26.9,12.1,0000.0,0013.98,0005.44,0004.23
2022-04-16 09:10:00,,0827.4,5.00,0.00,25.1,24.1,00.0,34.0,26.9,12.1,0000.0,0012.96,0005.46,0004.25
2022-04-16 09:11:00,,0827.3,4.99,0.00,25.1,24.1,00.0,34.0,26.9,12.1,0000.0,0013.11,0005.47,0004.26
2022-04-16 09:12:00,,0827.3,5.00,0.00,25.1,24.1,00.0,34.0,26.9,12.0,0000.0,0012.92,0005.39,0004.24
2022-04-16 09:13:00,,0827.4,5.00,0.00,25.1,24.1,00.0,34.0,26.9,12.0,0000.0,0012.68,0005.31,0004.24
2022-04-16 09:14:00,,0827.4,5.00,0.00,25.1,24.1,00.0,34.0,26.9,11.9,0000.0,0012.86,0005.34,0004.24
2022-04-16 09:15:00,,0827.4,5.01,0.00,25.1,24.1,00.0,34.0,26.9,12.0,0000.0,0012.87,0005.38,0004.23
2022-04-16 09:16:00,,0827.4,5.00,0.00,25.1,24.1,00.0,34.0,26.9,12.0,0000.0,0012.46,0005.36,0004.24
2022-04-16 09:17:00,,0827.4,5.00,0.00,25.1,24.1,00.0,34.0,26.9,12.1,0000.0,0012.19,0005.34,0004.24
2022-04-16 09:18:00,,0827.4,5.00,0.00,25.0,24.0,00.0,34.0,26.8,12.2,0000.0,0012.57,0005.36,0004.26
2022-04-16 09:19:00,,0827.4,5.00,0.00,25.0,24.0,00.0,34.0,26.8,12.3,0000.0,0013.18,0005.37,0004.26
2022-04-16 09:20:00,,0827.4,5.00,0.00,25.0,24.0,00.0,34.0,26.8,12.5,0000.0,0013.37,0005.42,0004.28
2022-04-16 09:21:00,,0827.4,5.00,0.00,25.0,24.0,00.0,34.0,26.8,12.7,0000.0,0013.18,0005.43,0004.30
2022-04-16 09:22:00,,0827.3,5.00,0.00,25.0,24.0,00.0,34.0,26.8,12.8,0000.0,0013.42,0005.51,0004.33
2022-04-16 09:23:00,,0827.3,5.00,0.00,25.0,24.0,00.0,34.0,26.8,13.1,0000.0,0013.84,0005.60,0004.38
2022-04-16 09:24:00,,0827.3,4.99,0.00,25.0,23.9,00.0,33.9,26.8,13.3,0000.0,0014.22,0005.69,0004.43
2022-04-16 09:25:00,,0827.3,5.00,0.00,25.0,23.9,00.0,33.9,26.7,13.5,0000.0,0014.56,0005.70,0004.47
2022-04-16 09:26:00,,0827.3,5.00,0.00,24.9,23.9,00.0,33.9,26.7,13.6,0000.0,0014.96,0005.71,0004.52
2022-04-16 09:27:00,,0827.3,5.00,0.00,24.9,23.9,00.0,33.9,26.7,13.7,0000.0,0015.42,0005.77,0004.56
2022-04-16 09:28:00,,0827.4,5.00,0.00,24.9,23.9,00.0,33.9,26.7,13.8,0000.0,0015.40,0005.82,0004.60
2022-04-16 09:29:00,,0827.3,5.00,0.00,24.9,23.8,00.0,33.9,26.7,13.9,0000.0,0014.85,0005.88,0004.65
2022-04-16 09:30:00,,0827.3,5.00,0.00,24.9,23.8,00.0,33.9,26.7,13.9,0000.0,0014.01,0005.92,0004.70
2022-04-16 09:31:00,,0827.3,5.00,0.00,24.9,23.8,00.0,33.9,26.7,14.0,0000.0,0013.50,0005.89,0004.73
2022-04-16 09:32:00,,0827.3,5.00,0.00,24.9,23.8,00.0,33.8,26.7,14.0,0000.0,0014.34,0005.92,0004.77
2022-04-16 09:33:00,,0827.3,5.00,0.00,24.8,23.8,00.0,33.8,26.6,14.0,0000.0,0013.79,0005.89,0004.81
2022-04-16 09:34:00,,0827.3,5.01,0.00,24.8,23.8,00.0,33.8,26.6,14.1,0000.0,0013.88,0005.97,0004.85
2022-04-16 09:35:00,,0827.2,5.00,0.00,24.8,23.8,00.0,33.8,26.6,14.1,0000.0,0014.26,0006.02,0004.87
2022-04-16 09:36:00,,0827.3,5.00,0.00,24.8,23.8,00.0,33.8,26.6,14.1,0000.0,0013.80,0006.03,0004.90
2022-04-16 09:37:00,,0827.2,5.00,0.00,24.8,23.8,00.0,33.8,26.6,14.1,0000.0,0014.26,0006.04,0004.91
2022-04-16 09:38:00,,0827.7,5.00,0.00,24.8,23.8,00.0,33.8,26.6,14.1,0000.0,0014.06,0006.00,0004.92
2022-04-16 09:39:00,,0827.4,5.01,0.00,24.8,23.7,00.0,33.8,26.6,14.2,0000.0,0013.90,0005.99,0004.94
2022-04-16 09:40:00,,0827.3,5.00,0.00,24.8,23.7,00.0,33.7,26.6,14.2,0000.0,0013.87,0006.02,0004.95
2022-04-16 09:41:00,,0827.1,5.02,0.00,24.7,23.7,00.0,33.7,26.6,14.2,0000.0,0013.90,0006.04,0004.97
2022-04-16 09:42:00,,0827.1,5.00,0.00,24.7,23.7,00.0,33.7,26.6,14.2,0000.0,0013.90,0006.05,0004.98
2022-04-16 09:43:00,,0827.1,5.00,0.00,24.7,23.7,00.0,33.7,26.5,14.2,0000.0,0012.95,0006.06,0004.97
2022-04-16 09:44:00,,0827.2,5.00,0.00,24.7,23.7,00.0,33.7,26.5,14.1,0000.0,0012.84,0006.04,0004.95
2022-04-16 09:45:00,,0827.2,5.00,0.00,24.7,23.7,00.0,33.7,26.5,14.1,0000.0,0013.32,0005.95,0004.93
2022-04-16 09:46:00,,0827.2,5.00,0.00,24.7,23.7,00.0,33.7,26.5,14.0,0000.0,0012.94,0005.92,0004.91
2022-04-16 09:47:00,,0827.1,5.01,0.00,24.7,23.7,00.0,33.7,26.5,13.9,0000.0,0013.20,0005.93,0004.88
2022-04-16 09:48:00,,0827.2,5.00,0.00,24.7,23.7,00.0,33.7,26.5,13.9,0000.0,0012.31,0005.93,0004.86
2022-04-16 09:49:00,,0827.2,5.00,0.00,24.7,23.7,00.0,33.6,26.5,13.9,0000.0,0012.36,0005.99,0004.85
2022-04-16 09:50:00,,0827.2,5.00,0.00,24.7,23.7,00.0,33.6,26.5,13.9,0000.0,0012.54,0005.99,0004.84
2022-04-16 09:51:00,,0827.2,5.00,0.00,24.7,23.7,00.0,33.6,26.5,13.9,0000.0,0012.50,0005.97,0004.84
2022-04-16 09:52:00,,0827.2,5.00,0.00,24.7,23.7,00.0,33.6,26.5,13.8,0000.0,0013.05,0005.96,0004.80
2022-04-16 09:53:00,,0827.1,4.99,0.00,24.7,23.7,00.0,33.6,26.5,13.7,0000.0,0013.74,0005.97,0004.78
2022-04-16 09:54:00,,0827.2,4.99,0.00,24.7,23.7,00.0,33.6,26.5,13.7,0000.0,0013.79,0005.93,0004.77
2022-04-16 09:55:00,,0827.2,5.00,0.00,24.6,23.7,00.0,33.6,26.5,13.6,0000.0,0014.02,0005.91,0004.75
2022-04-16 09:56:00,,0827.1,5.00,0.00,24.6,23.7,00.0,33.6,26.5,13.5,0000.0,0013.09,0005.87,0004.74
2022-04-16 09:57:00,,0827.1,5.00,0.00,24.6,23.7,00.0,33.6,26.4,13.6,0000.0,0013.54,0005.88,0004.74
2022-04-16 09:58:00,,0827.1,5.00,0.00,24.6,23.7,00.0,33.6,26.4,13.6,0000.0,0013.71,0005.88,0004.75
2022-04-16 09:59:00,,0827.2,5.00,0.00,24.6,23.6,00.0,33.6,26.4,13.7,0000.0,0014.46,0005.90,0004.76
